Zurück zum Katalog

COSMOS 1924

AktivNavigationLEO
NORAD 18937·PAYLOAD·🇷🇺 Russia

Gestartet Mar 11, 1988 von Plesetsk Cosmodrome

Loading…

Nächste Überflüge (nächste 24 Stunden)

TLE

AktuellSource: Space-Track

Epoche: Sep 14, 2026, 13:20 UTC

1 18937U 88016A   26257.55559187 -.00000010  00000-0  39196-4 0  9992
2 18937  74.0092  11.1576 0035061 265.2508 107.0414 12.44623359749798

Verfolge COSMOS 1924 in Echtzeit mit AllMySat

Download on the App Store